• In Hungary
  • List of Countries
  • For 7 days
  • Water Temperature
  • Satellite Maps
  • Weather Map
  • News
  • Weather Widgets
  • user-avatar
    Login

    Hourly Weather Charbielin

    Today, 17 July, Tuesday

    Time Temperature Precipitation Wind Pressure Humidity
    00:00 +18°C° 0 mm 1 mps 730 mmHg 87%
    01:00 +16°C° 0 mm 2 mps 730 mmHg 89%
    02:00 +16°C° 0 mm 2 mps 730 mmHg 90%
    03:00 +16°C° 0 mm 2 mps 730 mmHg 91%
    04:00 +16°C° 0 mm 2 mps 730 mmHg 92%
    05:00 +17°C° 0 mm 2 mps 730 mmHg 89%
    06:00 +18°C° 0 mm 2 mps 730 mmHg 87%
    07:00 +19°C° 0 mm 3 mps 730 mmHg 84%
    08:00 +20°C° 0.4 mm 3 mps 730 mmHg 82%
    09:00 +20°C° 0.4 mm 4 mps 730 mmHg 81%
    10:00 +21°C° 0.4 mm 4 mps 730 mmHg 80%
    11:00 +20°C° 0.8 mm 5 mps 730 mmHg 82%
    12:00 +20°C° 0.8 mm 5 mps 730 mmHg 84%
    13:00 +20°C° 0.8 mm 5 mps 730 mmHg 86%
    14:00 +20°C° 0.6 mm 5 mps 730 mmHg 87%
    15:00 +20°C° 0.6 mm 5 mps 730 mmHg 87%
    16:00 +19°C° 0.6 mm 5 mps 730 mmHg 88%
    17:00 +19°C° 0.6 mm 5 mps 730 mmHg 90%
    18:00 +19°C° 0.6 mm 5 mps 730 mmHg 91%
    19:00 +18°C° 0.6 mm 4 mps 730 mmHg 93%
    20:00 +18°C° 0.2 mm 4 mps 730 mmHg 94%
    21:00 +18°C° 0.2 mm 4 mps 730 mmHg 94%
    22:00 +17°C° 0.2 mm 4 mps 730 mmHg 95%
    23:00 +17°C° 0.1 mm 4 mps 730 mmHg 95%

    Tomorrow, 18 July, Wednesday

    Time Temperature Precipitation Wind Pressure Humidity
    00:00 +17°C° 0.1 mm 4 mps 730 mmHg 95%
    01:00 +17°C° 0.1 mm 4 mps 730 mmHg 95%
    02:00 +17°C° 0.1 mm 4 mps 730 mmHg 95%
    03:00 +17°C° 0.1 mm 4 mps 730 mmHg 95%
    04:00 +16°C° 0.1 mm 5 mps 730 mmHg 95%
    05:00 +17°C° 0.4 mm 5 mps 730 mmHg 94%
    06:00 +17°C° 0.4 mm 6 mps 730 mmHg 92%
    07:00 +17°C° 0.4 mm 6 mps 730 mmHg 91%
    08:00 +17°C° 2.5 mm 6 mps 730 mmHg 91%
    09:00 +17°C° 2.5 mm 7 mps 731 mmHg 91%
    10:00 +17°C° 2.5 mm 7 mps 731 mmHg 91%
    11:00 +17°C° 1.5 mm 7 mps 731 mmHg 91%
    12:00 +17°C° 1.5 mm 7 mps 731 mmHg 92%
    13:00 +18°C° 1.5 mm 7 mps 731 mmHg 92%
    14:00 +17°C° 0.4 mm 7 mps 731 mmHg 91%
    15:00 +17°C° 0.4 mm 7 mps 731 mmHg 91%
    16:00 +17°C° 0.4 mm 6 mps 731 mmHg 90%
    17:00 +17°C° 0.1 mm 6 mps 732 mmHg 90%
    18:00 +17°C° 0.1 mm 5 mps 732 mmHg 91%
    19:00 +17°C° 0.1 mm 5 mps 732 mmHg 92%
    20:00 +17°C° 0.2 mm 5 mps 732 mmHg 92%
    21:00 +18°C° 0.2 mm 4 mps 733 mmHg 93%
    22:00 +18°C° 0.2 mm 4 mps 733 mmHg 94%
    23:00 +17°C° 0.1 mm 4 mps 733 mmHg 94%

    Day after tomorrow, 19 July, Thursday

    Time Temperature Precipitation Wind Pressure Humidity
    00:00 +17°C° 0.1 mm 4 mps 733 mmHg 94%
    01:00 +17°C° 0.1 mm 4 mps 733 mmHg 94%
    02:00 +17°C° 0.1 mm 4 mps 733 mmHg 94%
    03:00 +17°C° 0.1 mm 4 mps 733 mmHg 95%
    04:00 +17°C° 0.1 mm 4 mps 733 mmHg 95%
    05:00 +17°C° 0.1 mm 4 mps 733 mmHg 94%
    06:00 +18°C° 0.1 mm 4 mps 733 mmHg 93%
    07:00 +18°C° 0.1 mm 4 mps 734 mmHg 92%
    08:00 +18°C° 0.2 mm 4 mps 734 mmHg 92%
    09:00 +18°C° 0.2 mm 4 mps 734 mmHg 91%
    10:00 +18°C° 0.2 mm 4 mps 734 mmHg 91%
    11:00 +18°C° 0.2 mm 4 mps 734 mmHg 90%
    12:00 +19°C° 0.2 mm 4 mps 734 mmHg 89%
    13:00 +19°C° 0.2 mm 4 mps 734 mmHg 88%
    14:00 +20°C° 0.1 mm 4 mps 734 mmHg 86%
    15:00 +20°C° 0.1 mm 4 mps 734 mmHg 84%
    16:00 +21°C° 0.1 mm 4 mps 734 mmHg 81%
    17:00 +21°C° 0 mm 3 mps 734 mmHg 83%
    18:00 +20°C° 0 mm 3 mps 734 mmHg 85%
    19:00 +20°C° 0 mm 2 mps 734 mmHg 87%
    20:00 +19°C° 0 mm 2 mps 734 mmHg 89%
    21:00 +18°C° 0 mm 2 mps 734 mmHg 91%
    22:00 +17°C° 0 mm 2 mps 734 mmHg 93%
    23:00 +17°C° 0 mm 2 mps 734 mmHg 94%

    20 July, Friday

    Time Temperature Precipitation Wind Pressure Humidity
    00:00 +17°C° 0 mm 2 mps 734 mmHg 95%
    01:00 +17°C° 0 mm 2 mps 734 mmHg 96%
    02:00 +16°C° 0 mm 2 mps 734 mmHg 96%
    03:00 +16°C° 0 mm 2 mps 734 mmHg 97%
    04:00 +16°C° 0 mm 2 mps 734 mmHg 97%
    05:00 +17°C° 0 mm 2 mps 734 mmHg 93%
    06:00 +18°C° 0 mm 3 mps 734 mmHg 90%
    07:00 +19°C° 0 mm 3 mps 735 mmHg 86%
    08:00 +20°C° 0 mm 3 mps 735 mmHg 79%
    09:00 +21°C° 0 mm 3 mps 735 mmHg 72%
    10:00 +24°C° 0 mm 3 mps 735 mmHg 65%
    11:00 +24°C° 0 mm 3 mps 735 mmHg 63%
    12:00 +25°C° 0 mm 3 mps 734 mmHg 60%
    13:00 +26°C° 0 mm 3 mps 734 mmHg 57%
    14:00 +26°C° 0 mm 3 mps 734 mmHg 57%
    15:00 +26°C° 0 mm 3 mps 734 mmHg 56%
    16:00 +26°C° 0 mm 3 mps 734 mmHg 55%
    17:00 +25°C° 0 mm 2 mps 733 mmHg 61%
    18:00 +24°C° 0 mm 2 mps 733 mmHg 66%
    19:00 +22°C° 0 mm 1 mps 733 mmHg 71%
    20:00 +21°C° 0 mm 1 mps 733 mmHg 73%
    21:00 +20°C° 0 mm 1 mps 733 mmHg 75%
    22:00 +18°C° 0 mm 1 mps 733 mmHg 78%
    23:00 +18°C° 0 mm 1 mps 733 mmHg 78%

    21 July, Saturday

    Time Temperature Precipitation Wind Pressure Humidity
    00:00 +16°C° 0 mm 1 mps 733 mmHg 78%
    01:00 +16°C° 0 mm 1 mps 733 mmHg 79%
    02:00 +16°C° 0 mm 1 mps 733 mmHg 80%
    03:00 +15°C° 0 mm 1 mps 733 mmHg 80%
    04:00 +14°C° 0 mm 0 mps 732 mmHg 81%
    05:00 +16°C° 0 mm 0 mps 733 mmHg 77%
    06:00 +17°C° 0 mm 0 mps 733 mmHg 73%
    07:00 +19°C° 0 mm 0 mps 733 mmHg 70%
    08:00 +22°C° 0 mm 1 mps 733 mmHg 65%
    09:00 +24°C° 0 mm 1 mps 733 mmHg 61%
    10:00 +25°C° 0 mm 1 mps 733 mmHg 56%
    11:00 +26°C° 0 mm 1 mps 732 mmHg 54%
    12:00 +26°C° 0 mm 1 mps 732 mmHg 51%
    13:00 +27°C° 0 mm 1 mps 732 mmHg 49%
    14:00 +27°C° 0 mm 2 mps 732 mmHg 50%
    15:00 +27°C° 0 mm 2 mps 732 mmHg 51%
    16:00 +27°C° 0 mm 2 mps 731 mmHg 52%
    17:00 +25°C° 0.1 mm 2 mps 731 mmHg 59%
    18:00 +24°C° 0.1 mm 2 mps 731 mmHg 65%
    19:00 +23°C° 0.1 mm 2 mps 731 mmHg 71%
    20:00 +21°C° 0 mm 2 mps 731 mmHg 73%
    21:00 +19°C° 0 mm 2 mps 731 mmHg 75%
    22:00 +18°C° 0 mm 2 mps 731 mmHg 77%
    23:00 +18°C° 0 mm 2 mps 731 mmHg 78%

    22 July, Sunday

    Time Temperature Precipitation Wind Pressure Humidity
    00:00 +17°C° 0 mm 2 mps 731 mmHg 78%
    01:00 +18°C° 0 mm 1 mps 731 mmHg 79%
    02:00 +17°C° 0 mm 2 mps 731 mmHg 79%
    03:00 +16°C° 0 mm 2 mps 731 mmHg 78%
    04:00 +16°C° 0 mm 2 mps 730 mmHg 78%
    05:00 +17°C° 0 mm 2 mps 731 mmHg 76%
    06:00 +18°C° 0 mm 3 mps 731 mmHg 75%
    07:00 +19°C° 0 mm 3 mps 731 mmHg 73%
    08:00 +20°C° 0.1 mm 4 mps 731 mmHg 71%
    09:00 +21°C° 0.1 mm 4 mps 732 mmHg 69%
    10:00 +22°C° 0.1 mm 5 mps 732 mmHg 67%
    11:00 +22°C° 0.1 mm 5 mps 732 mmHg 68%
    12:00 +22°C° 0.1 mm 5 mps 732 mmHg 69%
    13:00 +22°C° 0.1 mm 5 mps 732 mmHg 70%
    14:00 +21°C° 0.2 mm 5 mps 732 mmHg 71%
    15:00 +21°C° 0.2 mm 4 mps 732 mmHg 73%
    16:00 +21°C° 0.2 mm 4 mps 732 mmHg 75%
    17:00 +20°C° 0.1 mm 3 mps 732 mmHg 78%
    18:00 +19°C° 0.1 mm 3 mps 733 mmHg 81%
    19:00 +18°C° 0.1 mm 2 mps 733 mmHg 84%
    20:00 +18°C° 0 mm 2 mps 733 mmHg 84%
    21:00 +17°C° 0 mm 2 mps 733 mmHg 85%
    22:00 +17°C° 0 mm 2 mps 733 mmHg 85%
    23:00 +16°C° 0 mm 2 mps 733 mmHg 87%
    Show more